Location: Peebles
(55.6412°N, 3.1714°W)
Time: 09:31:51
(UTC+01:00)

FENGYUN 1C DEB - Pass Details

Date: 05 July 2022
Orbit: 749 x 887 km, 98.1° (Epoch: 08 August)

Event Time Altitude Azimuth Distance (km) Brightness Sun altitude
Rises 02:42:50 0° 15° (NNE) 3,510 ? -9.5°
Reaches altitude 10° 02:45:16 10° 16° (NNE) 2,565 ? -9.4°
Maximum altitude 02:51:02 86° 105° (ESE) 890 ? -9.1°
Enters shadow 02:56:32 11° 196° (SSW) 2,460 ? -8.8°
